Regional Weather Roundup
Issued by NWS Cleveland, OH

Home | Current Version | Previous Version | Text Only | Print | Product List | Glossary Off
Versions: 1 2 3 4 5 6 7 8 9 10 11 12 13 14 15 16 17 18 19 20 21 22 23 24 25 26 27 28 29 30 31 32 33 34 35 36 37 38 39 40 41 42 43 44 45 46 47 48 49 50

000
ASUS41 KCLE 041202
RWRCLE
OHIO REGIONAL WEATHER ROUNDUP
NATIONAL WEATHER SERVICE CLEVELAND, OH
800 AM EDT SAT JUL 04 2015

NOTE: "FAIR" INDICATES FEW OR NO CLOUDS BELOW 12,000 FEET WITH NO
SIGNIFICANT WEATHER AND/OR OBSTRUCTIONS TO VISIBILITY.

OHZ001>008-015>018-024>027-034-035-043-044-041300-
   NORTHWEST OHIO

CITY           SKY/WX    TMP DP  RH WIND       PRES   REMARKS
DEFIANCE       SUNNY     59  56  89 CALM      29.98R
FINDLAY        SUNNY     57  54  89 CALM      29.97R
TOLEDO EXPRESS SUNNY     58  53  84 CALM      29.97R
TOLEDO EXEC    SUNNY     59  54  83 NW3       29.98R
LIMA           SUNNY     59  55  87 CALM      29.99R
$$

OHZ009>014-019>023-028>033-038-089-041300-
   NORTHEAST OHIO

CITY           SKY/WX    TMP DP  RH WIND       PRES   REMARKS
CLE-HOPKINS    SUNNY     65  56  72 CALM      29.97R
CLE-LAKEFRONT  SUNNY     68  59  73 N8        29.94R
CUY CO. ARPT   NOT AVBL
LORAIN-ELYRIA  SUNNY     61  57  87 CALM      29.97R
ASHTABULA      SUNNY     62  59  90 N3        29.95R
AKRON-CANTON   SUNNY     64  57  78 N9        29.94R
WOOSTER        SUNNY     62  59  90 N9        29.96R
MANSFIELD      SUNNY     59  59 100 NW6       29.97R FOG
YOUNGSTOWN     MOSUNNY   61  56  83 NW6       29.93R
$$

OHZ042-051>053-060>062-070>072-077>081-041300-
  SOUTHWEST OHIO

CITY           SKY/WX    TMP DP  RH WIND       PRES   REMARKS
CINC-COVINGTON PTSUNNY   68  62  81 E6        29.98R
CINC-LUNKEN    CLOUDY    67  63  87 CALM      29.97R
HAMILTON       CLOUDY    67  62  84 CALM      29.99R
DAYTON         SUNNY     63  58  83 NW3       30.00R
WRIGHT-PAT AFB NOT AVBL
DAYTON GENERAL SUNNY     64  59  83 NE7       29.97R
WILMINGTON     SUNNY     64  59  83 N3        29.97R HAZE
$$

OHZ036-037-039>041-045>050-054>059-063>069-073>076-082>088-041300-
  CENTRAL AND SOUTHEAST OHIO

CITY           SKY/WX    TMP DP  RH WIND       PRES   REMARKS
COLUMBUS       SUNNY     61  57  87 N5        29.95R
OSU AIRPORT    SUNNY     62  56  80 N5        29.97R
BOLTON FIELD   SUNNY     61  57  88 NW6       29.97R
RICKENBACK AFB NOT AVBL
NEWARK         SUNNY     63  59  87 N3        29.95R
MARION         SUNNY     60  53  77 N3        29.98R
LANCASTER      SUNNY     62  60  93 CALM      29.96R
ZANESVILLE     NOT AVBL
NEW PHILLY     SUNNY     62  57  83 NW3       29.95R
$$


USA.gov is the U.S. government's official web portal to all federal, state and local government web resources and services.